User: anonymous   Login
Location: Newark
(44.0692°N, 7.2567°E)
Time: 09:22:38
(UTC+00:00)
Language:

UWE-3 - Orbit

View from above orbital plane
View from above orbital plane
View from above satellite
View from above satellite

Ground track
Ground track

The orbit data is extracted from the following two-line orbital elements,

1 39446U 13066AG  19292.93592654  .00000211  00000-0  34614-4 0  9994
2 39446  97.5859 291.2870 0070510  19.0746 341.3082 14.78435456317470
Epoch (UTC): 19 October 2019 22:27:44
Eccentricity: 0.0070510
inclination: 97.5859°
perigee height: 585 km
apogee height: 684 km
right ascension of ascending node: 291.2870°
argument of perigee: 19.0746°
revolutions per day: 14.78435456
mean anomaly at epoch: 341.3082°
orbit number at epoch: 31747

The dashed part of the orbit path shows where the satellite is in the earth's shadow,  

DLR